Location: North Evanston
(42.0634°N, 87.6976°W)
Time: 05:52:52
(UTC+00:00)

Vanguard 2 - All Passes

Search period start: 10 May 2026 00:00
Search period end: 20 May 2026 00:00
Orbit: 554 x 2895 km, 32.9° (Epoch: 9 May)

Date Brightness Start Highest point End Pass type
(mag) Time Alt. Az. Time Alt. Az. Time Alt. Az.
10 May - 07:20:56 10° SSW 07:34:51 30° SSE 07:46:56 10° E visible
10 May - 09:29:08 10° SW 09:45:13 50° SSE 09:56:52 10° E visible
10 May - 11:40:41 10° WSW 11:55:22 55° S 12:04:42 10° ESE daylight
10 May - 13:53:22 10° W 14:04:00 36° SSW 14:10:53 10° SE daylight
11 May - 05:29:10 10° SSE 05:36:37 14° SE 05:43:59 10° ESE visible
11 May - 07:31:20 10° SSW 07:46:15 36° SSE 07:59:06 10° E visible
11 May - 09:40:25 10° WSW 09:56:48 54° S 10:08:35 10° E visible
11 May - 11:52:19 10° W 12:06:56 54° S 12:16:16 10° ESE daylight
11 May - 14:05:15 10° W 14:15:20 31° SSW 14:22:02 10° SSE daylight
12 May - 05:37:31 10° S 05:47:49 19° SE 05:57:59 10° E visible
12 May - 07:42:02 10° SW 07:57:40 41° SSE 08:11:04 10° E visible
12 May - 09:51:49 10° WSW 10:08:24 57° S 10:20:16 10° E visible
12 May - 12:03:59 10° W 12:18:29 52° SSW 12:27:46 10° ESE daylight
12 May - 14:17:16 10° W 14:26:34 27° SW 14:33:00 10° SSE daylight
13 May - 05:46:57 10° S 05:59:01 24° SE 06:10:59 10° E visible
13 May - 07:52:57 10° SW 08:09:08 46° SSE 08:22:55 10° E visible
13 May - 10:03:18 10° WSW 10:20:00 59° S 10:31:55 10° ESE visible
13 May - 12:15:41 10° W 12:29:57 49° SSW 12:39:11 10° SE daylight
13 May - 14:29:29 10° W 14:37:42 22° SW 14:43:42 10° S daylight
14 May - 05:56:58 10° SSW 06:10:13 30° SE 06:23:29 10° E visible
14 May - 08:04:03 10° SW 08:20:37 51° SSE 08:34:42 10° E visible
14 May - 10:14:51 10° WSW 10:31:35 59° S 10:43:32 10° ESE daylight
14 May - 12:27:27 10° W 12:41:21 44° SSW 12:50:31 10° SE daylight
14 May - 14:42:04 10° W 14:48:46 17° SW 14:53:58 10° S daylight
15 May - 04:07:35 10° SSE 04:12:32 12° SE 04:17:41 10° ESE visible
15 May - 06:07:21 10° SSW 06:21:28 35° SSE 06:35:41 10° E visible
15 May - 08:15:18 10° WSW 08:32:08 55° SSE 08:46:25 10° E visible
15 May - 10:26:27 10° W 10:43:10 59° S 10:55:05 10° ESE daylight
15 May - 12:39:15 10° W 12:52:41 40° SSW 13:01:44 10° SE daylight
15 May - 14:55:27 10° WSW 14:59:45 13° SW 15:03:27 10° SSW daylight
16 May - 04:15:07 10° SSE 04:23:33 17° SE 04:32:38 10° ESE visible
16 May - 06:18:01 10° SSW 06:32:46 40° SSE 06:47:41 10° E visible
16 May - 08:26:39 10° WSW 08:43:41 58° S 08:58:06 10° E visible
16 May - 10:38:06 10° W 10:54:42 57° SSW 11:06:35 10° ESE daylight
16 May - 12:51:09 10° W 13:03:55 34° SW 13:12:46 10° SSE daylight
17 May - 04:24:18 10° S 04:34:35 22° SE 04:45:58 10° E visible
17 May - 06:28:55 10° SW 06:44:06 46° SSE 06:59:33 10° E visible
17 May - 08:38:06 10° WSW 08:55:15 61° S 09:09:44 10° E visible
17 May - 10:49:46 10° W 11:06:12 54° SSW 11:18:01 10° SE daylight
17 May - 13:03:11 10° W 13:15:04 29° SW 13:23:37 10° SSE daylight
18 May - 04:34:12 10° S 04:45:39 27° SE 04:58:39 10° E visible
18 May - 06:40:00 10° SW 06:55:29 50° SSE 07:11:20 10° E visible
18 May - 08:49:38 10° WSW 09:06:50 62° S 09:21:21 10° ESE visible
18 May - 11:01:28 10° W 11:17:38 50° SSW 11:29:22 10° SE daylight
18 May - 13:15:25 10° W 13:26:09 24° SW 13:34:10 10° S daylight
19 May - 04:44:32 10° SSW 04:56:45 32° SE 05:10:56 10° E visible
19 May - 06:51:13 10° SW 07:06:56 55° SSE 07:23:04 10° E visible
19 May - 09:01:12 10° WSW 09:18:23 61° S 09:32:55 10° ESE visible
19 May - 11:13:14 10° W 11:28:59 46° SSW 11:40:36 10° SE daylight
19 May - 13:28:02 10° W 13:37:08 19° SW 13:44:20 10° S daylight
